Simultaneous Nadir Overpasses (SNOs) Predictions

Prediction of SNOs between NOAA-20 and METOP-B Satellite Orbit:

Table of predicted SNOs for the next 14.0 days since TLE Epoch: 10/23/2021
Index Date (NOAA-20) Time (NOAA-20) Lat,Lon (NOAA-20) SZA (NOAA-20 ) Date (METOP-B) Time (METOP-B) Lat,Lon (METOP-B) SZA (METOP-B ) Distance(km) Time Diff (sec)
1 11/04/2021 07:43:11 73.36, 54.57 88.82 11/04/2021 07:44:18 73.28, 57.11 88.68 81.48 67
2 11/04/2021 08:33:53 -73.25,-137.86 91.30 11/04/2021 08:35:02 -73.20,-135.75 91.39 68.08 69
3 11/04/2021 09:24:35 73.07, 29.85 88.53 11/04/2021 09:25:45 73.01, 31.18 88.44 43.60 70
4 11/04/2021 10:15:17 -72.96,-162.60 91.58 11/04/2021 10:16:29 -72.93,-161.67 91.64 30.28 72
5 11/04/2021 11:05:59 72.77, 5.10 88.24 11/04/2021 11:07:12 72.74, 5.26 88.19 6.61 73
6 11/04/2021 11:56:42 -72.71, 172.54 91.82 11/04/2021 11:57:55 -72.71, 172.52 91.83 0.95 73
7 11/04/2021 12:47:28 72.73, -20.18 88.21 11/04/2021 12:48:34 72.71, -20.12 88.19 2.49 66
8 11/04/2021 13:38:12 -72.72, 147.16 91.79 11/04/2021 13:39:16 -72.74, 147.24 91.78 3.51 64
9 11/04/2021 14:28:57 72.68, -45.47 88.19 11/04/2021 14:29:56 72.69, -45.50 88.20 1.63 59
10 11/04/2021 15:19:42 -72.73, 121.77 91.76 11/04/2021 15:20:38 -72.71, 121.86 91.78 3.37 56
11 11/04/2021 16:10:27 72.69, -70.85 88.22 11/04/2021 16:11:18 72.67, -70.89 88.20 2.37 51
12 11/04/2021 17:01:11 -72.68, 96.48 91.79 11/04/2021 17:02:00 -72.69, 96.48 91.78 1.35 49
13 11/04/2021 17:51:57 72.70, -96.24 88.25 11/04/2021 17:52:39 72.70, -96.16 88.25 2.64 42
14 11/04/2021 18:42:41 -72.69, 71.09 91.76 11/04/2021 18:43:22 -72.67, 71.10 91.78 1.76 41
15 11/04/2021 19:33:26 72.66,-121.53 88.23 11/04/2021 19:34:01 72.68,-121.55 88.25 3.02 35
16 11/04/2021 20:24:10 -72.65, 45.81 91.78 11/04/2021 20:24:44 -72.65, 45.72 91.77 3.18 34
17 11/04/2021 21:14:56 72.66,-146.92 88.25 11/04/2021 21:15:23 72.66,-146.93 88.25 0.44 27
18 11/04/2021 22:05:40 -72.65, 20.42 91.75 11/04/2021 22:06:05 -72.68, 20.44 91.72 3.37 25
19 11/04/2021 22:56:26 72.67,-172.31 88.28 11/04/2021 22:56:45 72.64,-172.31 88.25 3.29 19
20 11/04/2021 23:47:10 -72.66, -4.97 91.72 11/04/2021 23:47:27 -72.66, -4.95 91.72 0.83 17
21 11/05/2021 00:37:55 72.63, 162.41 88.26 11/05/2021 00:38:07 72.62, 162.31 88.25 3.50 12
22 11/05/2021 01:28:40 -72.67, -30.36 91.69 11/05/2021 01:28:49 -72.64, -30.33 91.72 3.06 9
23 11/05/2021 02:19:25 72.63, 137.02 88.29 11/05/2021 02:19:28 72.65, 137.03 88.30 1.81 3
24 11/05/2021 03:10:09 -72.62, -55.64 91.72 11/05/2021 03:10:11 -72.62, -55.71 91.72 2.22 2
25 11/05/2021 04:00:55 72.64, 111.63 88.32 11/05/2021 04:00:50 72.63, 111.64 88.31 1.42 5
26 11/05/2021 04:51:39 -72.63, -81.03 91.69 11/05/2021 04:51:32 -72.65, -80.99 91.67 2.63 7
27 11/05/2021 05:42:24 72.60, 86.35 88.29 11/05/2021 05:42:12 72.61, 86.26 88.31 3.00 12
28 11/05/2021 06:33:09 -72.64,-106.42 91.66 11/05/2021 06:32:54 -72.63,-106.37 91.67 1.93 15
29 11/05/2021 07:23:54 72.60, 60.96 88.32 11/05/2021 07:23:34 72.59, 60.88 88.31 3.17 20
30 11/05/2021 08:14:38 -72.59,-131.71 91.68 11/05/2021 08:14:16 -72.61,-131.75 91.67 2.20 22
31 11/05/2021 09:05:24 72.61, 35.57 88.35 11/05/2021 09:04:55 72.62, 35.60 88.36 1.31 29
32 11/05/2021 09:56:08 -72.60,-157.10 91.65 11/05/2021 09:55:38 -72.59,-157.13 91.67 1.98 30
33 11/05/2021 10:46:54 72.62, 10.18 88.38 11/05/2021 10:46:17 72.60, 10.22 88.36 2.86 37
34 11/05/2021 11:37:38 -72.61, 177.52 91.63 11/05/2021 11:36:59 -72.62, 177.59 91.62 2.59 39
35 11/05/2021 12:28:22 72.58, -15.11 88.36 11/05/2021 12:27:38 72.58, -15.16 88.36 1.83 44
36 11/05/2021 13:19:07 -72.62, 152.13 91.60 11/05/2021 13:18:20 -72.60, 152.20 91.61 3.33 47
37 11/05/2021 14:09:52 72.58, -40.50 88.38 11/05/2021 14:08:59 72.61, -40.44 88.41 3.16 53
38 11/05/2021 15:00:36 -72.57, 126.84 91.62 11/05/2021 14:59:42 -72.58, 126.82 91.61 0.75 54
39 11/05/2021 15:51:22 72.59, -65.89 88.41 11/05/2021 15:50:21 72.59, -65.82 88.41 2.14 61
40 11/05/2021 16:42:06 -72.58, 101.45 91.59 11/05/2021 16:41:04 -72.56, 101.44 91.61 2.69 62
41 11/05/2021 17:32:51 72.55, -91.17 88.39 11/05/2021 17:31:43 72.56, -91.21 88.41 2.28 68
42 11/05/2021 18:23:36 -72.59, 76.06 91.56 11/05/2021 18:22:25 -72.59, 76.16 91.56 3.29 71
43 11/05/2021 19:14:20 72.50,-116.46 88.36 11/05/2021 19:13:06 72.49,-116.69 88.36 7.87 74
44 11/05/2021 20:05:03 -72.44, 50.98 91.69 11/05/2021 20:03:49 -72.46, 50.58 91.66 13.81 74
45 11/05/2021 20:55:44 72.20,-141.24 88.08 11/05/2021 20:54:33 72.22,-142.58 88.12 45.39 71
46 11/05/2021 21:46:27 -72.14, 26.19 91.98 11/05/2021 21:45:17 -72.14, 24.60 91.95 54.48 70
47 11/05/2021 22:37:08 71.90,-166.04 87.79 11/05/2021 22:36:01 71.89,-168.54 87.83 86.43 67
48 11/05/2021 23:27:51 -71.84, 1.39 92.27 11/05/2021 23:26:44 -71.86, -1.27 92.19 91.95 67



Historial Predications of SNOs between NOAA-20 and METOP-B
